| time (UTC) | temp F | wind direction | speed MPH | gust MPH | rain 1hr in | rain 24hr in | rain mn in | humidity % | barometer mb |
| 20260508094558 | 36 | 331 | 0.0 | 2.0 | 0.00 | 0.00 | 0.00 | 92 | 1020.6 |
| 20260508093037 | 36 | 331 | 0.0 | 1.0 | 0.00 | 0.00 | 0.00 | 93 | 1020.6 |
| 20260508091530 | 37 | 331 | 0.0 | 1.0 | 0.00 | 0.00 | 0.00 | 93 | 1020.7 |
| 20260508090037 | 36 | 331 | 0.0 | 1.0 | 0.00 | 0.00 | 0.00 | 93 | 1020.8 |
| 20260508084535 | 36 | 331 | 0.0 | 1.0 | 0.00 | 0.00 | 0.00 | 94 | 1020.8 |
| 20260508083036 | 36 | 331 | 0.0 | 1.0 | 0.00 | 0.00 | 0.00 | 93 | 1020.8 |
| 20260508081542 | 36 | 331 | 0.0 | 1.0 | 0.00 | 0.00 | 0.00 | 95 | 1020.9 |
| 20260508080038 | 36 | 331 | 0.0 | 1.0 | 0.00 | 0.00 | 0.00 | 95 | 1020.8 |
| 20260508074534 | 36 | 331 | 0.0 | 2.0 | 0.00 | 0.00 | 0.00 | 94 | 1020.9 |
| 20260508073036 | 36 | 324 | 0.0 | 2.0 | 0.00 | 0.00 | 0.00 | 94 | 1021.1 |
| 20260508071539 | 36 | 324 | 0.0 | 1.0 | 0.00 | 0.00 | 0.00 | 95 | 1020.9 |
| 20260508070040 | 37 | 324 | 0.0 | 1.0 | 0.00 | 0.00 | 0.00 | 95 | 1021.0 |
| 20260508064549 | 37 | 324 | 0.0 | 2.0 | 0.00 | 0.00 | 0.00 | 94 | 1020.8 |
| 20260508063035 | 37 | 271 | 0.0 | 1.0 | 0.00 | 0.00 | 0.00 | 95 | 1021.1 |
| 20260508061538 | 38 | 271 | 0.0 | 1.0 | 0.00 | 0.00 | 0.00 | 94 | 1021.2 |
| 20260508060038 | 38 | 271 | 0.0 | 1.0 | 0.00 | 0.00 | 0.00 | 94 | 1021.1 |
| 20260508054539 | 38 | 271 | 0.0 | 1.0 | 0.00 | 0.00 | 0.00 | 93 | 1021.1 |
| 20260508053039 | 38 | 271 | 0.0 | 1.0 | 0.00 | 0.00 | 0.00 | 92 | 1021.2 |
| 20260508051539 | 39 | 271 | 0.0 | 0.0 | 0.00 | 0.00 | 0.00 | 92 | 1021.4 |
| 20260508050039 | 39 | 271 | 0.0 | 1.0 | 0.00 | 0.00 | 0.00 | 91 | 1021.3 |
| 20260508044547 | 40 | 263 | 0.0 | 1.0 | 0.00 | 0.00 | 0.00 | 91 | 1021.4 |
| 20260508043053 | 40 | 249 | 0.0 | 1.0 | 0.00 | 0.00 | 0.00 | 91 | 1021.4 |
| 20260508041555 | 41 | 249 | 0.0 | 1.0 | 0.00 | 0.00 | 0.00 | 90 | 1021.3 |
| 20260508040052 | 42 | 249 | 0.0 | 1.0 | 0.00 | 0.00 | 0.00 | 88 | 1021.1 |
| 20260508034555 | 44 | 249 | 0.0 | 1.0 | 0.00 | 0.00 | 0.00 | 86 | 1021.0 |
| 20260508033049 | 45 | 249 | 0.0 | 0.0 | 0.00 | 0.00 | 0.00 | 84 | 1021.1 |
| 20260508031548 | 47 | 249 | 0.0 | 2.0 | 0.00 | 0.00 | 0.00 | 82 | 1020.9 |
| 20260508030049 | 48 | 241 | 0.0 | 0.0 | 0.00 | 0.00 | 0.00 | 81 | 1021.0 |
| 20260508024550 | 49 | 241 | 0.0 | 3.0 | 0.00 | 0.00 | 0.00 | 76 | 1020.8 |
| 20260508023051 | 49 | 221 | 0.0 | 1.0 | 0.00 | 0.00 | 0.00 | 83 | 1021.0 |
| 20260508021553 | 50 | 226 | 0.0 | 2.0 | 0.00 | 0.00 | 0.00 | 81 | 1021.0 |
| 20260508020044 | 50 | 228 | 1.0 | 3.0 | 0.00 | 0.00 | 0.00 | 83 | 1021.0 |
| 20260508014544 | 50 | 211 | 1.0 | 2.0 | 0.00 | 0.00 | 0.00 | 82 | 1021.0 |
| 20260508013038 | 51 | 210 | 0.0 | 2.0 | 0.00 | 0.00 | 0.00 | 81 | 1021.3 |
| 20260508011541 | 52 | 163 | 1.0 | 3.0 | 0.00 | 0.00 | 0.00 | 78 | 1021.5 |
| 20260508010032 | 51 | 179 | 0.0 | 2.0 | 0.00 | 0.00 | 0.00 | 76 | 1021.1 |
| 20260508004538 | 51 | 63 | 0.0 | 2.0 | 0.00 | 0.00 | 0.00 | 77 | 1021.4 |
| 20260508003052 | 52 | 338 | 0.0 | 4.0 | 0.00 | 0.00 | 0.00 | 76 | 1021.3 |
| 20260508001536 | 53 | 55 | 1.0 | 4.0 | 0.00 | 0.00 | 0.00 | 78 | 1021.1 |
| 20260508000041 | 53 | 151 | 0.0 | 5.0 | 0.00 | 0.00 | 0.00 | 78 | 1021.0 |
| 20260507234534 | 54 | 242 | 1.0 | 5.0 | 0.00 | 0.00 | 0.00 | 76 | 1021.1 |
| 20260507233037 | 55 | 163 | 1.0 | 4.0 | 0.00 | 0.00 | 0.00 | 76 | 1021.0 |
| 20260507231540 | 55 | 37 | 0.0 | 4.0 | 0.00 | 0.00 | 0.00 | 75 | 1021.0 |
| 20260507230038 | 56 | 225 | 2.0 | 5.0 | 0.00 | 0.00 | 0.00 | 74 | 1021.3 |
| 20260507224535 | 55 | 181 | 1.0 | 4.0 | 0.00 | 0.00 | 0.00 | 75 | 1021.3 |
| 20260507223041 | 55 | 173 | 1.0 | 4.0 | 0.00 | 0.00 | 0.00 | 75 | 1021.4 |
| 20260507221534 | 54 | 87 | 2.0 | 6.0 | 0.00 | 0.00 | 0.00 | 76 | 1021.3 |
| 20260507220034 | 55 | 87 | 1.0 | 7.0 | 0.00 | 0.00 | 0.00 | 76 | 1021.5 |
| 20260507214532 | 56 | 105 | 1.0 | 5.0 | 0.00 | 0.00 | 0.00 | 75 | 1021.5 |
| 20260507213041 | 56 | 151 | 2.0 | 5.0 | 0.00 | 0.00 | 0.00 | 73 | 1021.6 |
| 20260507211549 | 56 | 205 | 1.0 | 4.0 | 0.00 | 0.00 | 0.00 | 73 | 1021.7 |
| 20260507210032 | 55 | 131 | 1.0 | 5.0 | 0.00 | 0.00 | 0.00 | 75 | 1021.8 |
| 20260507204538 | 55 | 147 | 2.0 | 6.0 | 0.00 | 0.00 | 0.00 | 74 | 1022.0 |
| 20260507203036 | 53 | 167 | 2.0 | 5.0 | 0.00 | 0.00 | 0.00 | 76 | 1022.0 |
| 20260507201539 | 52 | 162 | 2.0 | 6.0 | 0.00 | 0.00 | 0.00 | 77 | 1022.1 |
| 20260507200038 | 52 | 352 | 1.0 | 4.0 | 0.00 | 0.00 | 0.00 | 76 | 1022.3 |
| 20260507194543 | 52 | 160 | 1.0 | 5.0 | 0.00 | 0.00 | 0.00 | 76 | 1022.3 |
| 20260507193043 | 51 | 53 | 0.0 | 5.0 | 0.00 | 0.00 | 0.00 | 79 | 1022.3 |
| 20260507191539 | 50 | 164 | 2.0 | 4.0 | 0.00 | 0.00 | 0.00 | 80 | 1022.4 |
| 20260507190038 | 49 | 125 | 2.0 | 5.0 | 0.00 | 0.00 | 0.00 | 81 | 1022.8 |
| 20260507184538 | 47 | 145 | 0.0 | 3.0 | 0.00 | 0.00 | 0.00 | 83 | 1022.6 |
| 20260507183034 | 47 | 150 | 1.0 | 3.0 | 0.00 | 0.00 | 0.00 | 83 | 1022.6 |
| 20260507181547 | 46 | 152 | 1.0 | 3.0 | 0.00 | 0.00 | 0.00 | 88 | 1022.7 |
| 20260507180046 | 46 | 62 | 0.0 | 3.0 | 0.00 | 0.00 | 0.00 | 85 | 1022.8 |
| 20260507174540 | 45 | 109 | 1.0 | 3.0 | 0.00 | 0.00 | 0.00 | 87 | 1022.7 |
| 20260507173039 | 45 | 157 | 0.0 | 3.0 | 0.00 | 0.00 | 0.00 | 88 | 1022.5 |
| 20260507171538 | 44 | 69 | 0.0 | 2.0 | 0.00 | 0.00 | 0.00 | 91 | 1022.5 |
| 20260507170035 | 43 | 42 | 0.0 | 3.0 | 0.00 | 0.00 | 0.00 | 92 | 1022.5 |
| 20260507164539 | 43 | 73 | 1.0 | 2.0 | 0.00 | 0.00 | 0.00 | 93 | 1022.6 |
| 20260507163038 | 43 | 40 | 0.0 | 3.0 | 0.00 | 0.00 | 0.00 | 93 | 1022.3 |
| 20260507161540 | 42 | 82 | 1.0 | 3.0 | 0.00 | 0.00 | 0.00 | 96 | 1022.4 |
| 20260507160040 | 42 | 73 | 2.0 | 5.0 | 0.00 | 0.00 | 0.00 | 96 | 1022.5 |
| 20260507154538 | 41 | 86 | 1.0 | 3.0 | 0.00 | 0.00 | 0.00 | 96 | 1022.3 |
| 20260507153038 | 41 | 84 | 0.0 | 2.0 | 0.00 | 0.00 | 0.00 | 96 | 1022.6 |
| 20260507151545 | 41 | 83 | 0.0 | 2.0 | 0.00 | 0.00 | 0.00 | 97 | 1022.6 |
| 20260507150041 | 41 | 71 | 1.0 | 3.0 | 0.00 | 0.00 | 0.00 | 97 | 1022.7 |
| 20260507144539 | 40 | 105 | 0.0 | 1.0 | 0.00 | 0.00 | 0.00 | 98 | 1022.7 |
| 20260507143036 | 40 | 105 | 0.0 | 2.0 | 0.00 | 0.00 | 0.00 | 97 | 1022.7 |
| 20260507141537 | 40 | 51 | 0.0 | 3.0 | 0.00 | 0.00 | 0.00 | 97 | 1022.8 |
| 20260507140047 | 40 | 69 | 0.0 | 3.0 | 0.00 | 0.00 | 0.00 | 97 | 1022.7 |
| 20260507134539 | 40 | 101 | 0.0 | 2.0 | 0.00 | 0.00 | 0.00 | 97 | 1022.6 |
| 20260507133039 | 41 | 65 | 1.0 | 3.0 | 0.00 | 0.00 | 0.00 | 96 | 1022.6 |
| 20260507131544 | 41 | 48 | 0.0 | 1.0 | 0.00 | 0.00 | 0.00 | 96 | 1022.5 |
| 20260507130039 | 41 | 48 | 0.0 | 1.0 | 0.00 | 0.00 | 0.00 | 95 | 1022.5 |
| 20260507124546 | 41 | 51 | 0.0 | 1.0 | 0.00 | 0.00 | 0.00 | 95 | 1022.5 |
| 20260507123043 | 41 | 38 | 0.0 | 1.0 | 0.00 | 0.00 | 0.00 | 95 | 1022.6 |
| 20260507121549 | 41 | 38 | 0.0 | 1.0 | 0.00 | 0.00 | 0.00 | 95 | 1022.8 |
| 20260507120051 | 40 | 38 | 0.0 | 2.0 | 0.00 | 0.00 | 0.00 | 95 | 1022.9 |
| 20260507114549 | 40 | 56 | 0.0 | 2.0 | 0.00 | 0.00 | 0.00 | 95 | 1023.1 |
| 20260507113044 | 40 | 51 | 0.0 | 1.0 | 0.00 | 0.00 | 0.00 | 95 | 1023.1 |
| 20260507111547 | 40 | 51 | 0.0 | 0.0 | 0.00 | 0.00 | 0.00 | 94 | 1023.3 |
| 20260507110051 | 40 | 51 | 0.0 | 0.0 | 0.00 | 0.00 | 0.00 | 92 | 1023.3 |
| 20260507104546 | 41 | 51 | 0.0 | 1.0 | 0.00 | 0.00 | 0.00 | 91 | 1023.2 |
| 20260507103047 | 41 | 51 | 0.0 | 1.0 | 0.00 | 0.00 | 0.00 | 91 | 1023.3 |
| 20260507101559 | 41 | 51 | 0.0 | 1.0 | 0.00 | 0.00 | 0.00 | 92 | 1023.6 |
| 20260507100045 | 41 | 59 | 0.0 | 1.0 | 0.00 | 0.00 | 0.00 | 92 | 1023.5 |